Weather past 2 weeks in Amsterdam Island, French Southern Territories

Now
58 °F

Cool.


Feels Like: 53 °F
Forecast: 57 / 59 °F
Wind: 29 mph from Northwest

Location: Martin De Vivies Ile Amsterdam

Current Time: Jul 3, 2015 at 11:04:39 PM

Latest Report: Jul 3, 2015 at 10:00 PM


Visibility: N/A

Pressure: 29.89 "Hg

Humidity: 90%

Dew point: 55 °F

Location of Amsterdam IslandLocation

Historic Weather in Amsterdam Island — Graph

°F

Amsterdam Island temperature yesterday

Maximum temperature yesterday: 58 °F (at 1:00 AM)
Minimum temperature yesterday: 51 °F (at 6:00 PM)
Average temperature yesterday: 55 °F

Past Weeks' High & Low Weather Summary

 TemperatureHumidityPressure
High61 °F (Jun 23, 12:00 PM)96% (Jun 29, 11:00 PM)30.46 "Hg (Jun 29, 11:00 PM)
Low46 °F (Jun 28, 6:00 AM)54% (Jun 24, 3:00 PM)29.50 "Hg (Jun 27, 5:00 AM)
Average56 °F82%30.04 "Hg
* Reported Jun 18 10:00 PM — Jul 3 10:00 PM, Amsterdam Island, Weather by CustomWeather, © 2015

Note: Actual official high and low records may vary slightly from our data, if they occured in-between our weather recording intervals... More about our weather records

Advertising

Amsterdam Island weather history for previous 24 hours

 ConditionsComfort  
Time TempWeatherWind HumidityBarometerVisibility
10:00 PM
Fri, Jul 3
58 °FCool.29 mph90%29.89 "HgN/A
9:00 PM58 °FCool.24 mph89%29.91 "HgN/A
8:00 PM58 °FCool.23 mph89%29.94 "HgN/A
7:00 PM57 °FCool.24 mph88%29.95 "HgN/A
6:00 PM57 °FCool.22 mph87%29.95 "HgN/A
5:00 PM57 °FCool.21 mph88%29.96 "HgN/A
4:00 PM57 °FCool.16 mph84%29.96 "HgN/A
3:00 PM59 °FCool.16 mph80%29.97 "HgN/A
2:00 PM59 °FCool.18 mph78%29.98 "HgN/A
1:00 PM60 °FCool.17 mph76%29.98 "HgN/A
12:00 PM59 °FCool.21 mph72%29.99 "HgN/A
11:00 AM59 °FCool.17 mph74%30.00 "HgN/A
10:00 AM58 °FCool.14 mph74%30.01 "HgN/A
7:00 AM54 °FCool.14 mph92%29.95 "HgN/A
6:00 AM54 °FCool.18 mph93%29.93 "HgN/A
5:00 AM53 °FCool.21 mph91%29.90 "HgN/A
4:00 AM57 °FCool.30 mph83%29.87 "HgN/A
3:00 AM57 °FCool.29 mph81%29.88 "HgN/A
1:00 AM56 °FCool.25 mph81%29.89 "HgN/A
12:00 AM54 °FCool.24 mph79%29.90 "HgN/A
11:00 PM
Thu, Jul 2
54 °FCool.22 mph84%29.90 "HgN/A
Weather by CustomWeather, © 2015

See weather overviewHow to use our weather pages